| time (UTC) | temp F | wind direction | speed MPH | gust MPH | rain 1hr in | rain 24hr in | rain mn in | humidity % | barometer mb |
| 20260506121954 | 67 | 90 | 9.0 | 13.0 | 0.00 | 0.00 | 0.00 | 6 | 1007.7 |
| 20260506121524 | 68 | 90 | 11.0 | 15.0 | 0.00 | 0.00 | 0.00 | 6 | 1007.7 |
| 20260506121114 | 69 | 90 | 7.0 | 10.0 | 0.00 | 0.00 | 0.00 | 6 | 1007.6 |
| 20260506120639 | 68 | 135 | 10.0 | 15.0 | 0.00 | 0.00 | 0.00 | 6 | 1007.9 |
| 20260506120203 | 68 | 90 | 10.0 | 13.0 | 0.00 | 0.00 | 0.00 | 6 | 1007.9 |
| 20260506120155 | 68 | 90 | 10.0 | 13.0 | 0.00 | 0.00 | 0.00 | 6 | 1007.9 |
| 20260506115739 | 68 | 90 | 10.0 | 13.0 | 0.00 | 0.00 | 0.00 | 6 | 1007.9 |
| 20260506115328 | 66 | 90 | 8.0 | 11.0 | 0.00 | 0.00 | 0.00 | 6 | 1008.5 |
| 20260506114939 | 66 | 90 | 8.0 | 11.0 | 0.00 | 0.00 | 0.00 | 6 | 1008.5 |
| 20260506114514 | 66 | 90 | 8.0 | 11.0 | 0.00 | 0.00 | 0.00 | 6 | 1008.5 |
| 20260506114109 | 66 | 90 | 8.0 | 11.0 | 0.00 | 0.00 | 0.00 | 6 | 1008.5 |
| 20260506113723 | 66 | 90 | 8.0 | 11.0 | 0.00 | 0.00 | 0.00 | 6 | 1008.5 |
| 20260506113649 | 66 | 90 | 8.0 | 11.0 | 0.00 | 0.00 | 0.00 | 6 | 1008.5 |
| 20260506113224 | 66 | 90 | 8.0 | 11.0 | 0.00 | 0.00 | 0.00 | 6 | 1008.5 |
| 20260506112729 | 66 | 90 | 8.0 | 11.0 | 0.00 | 0.00 | 0.00 | 6 | 1008.5 |
| 20260506112354 | 66 | 90 | 8.0 | 11.0 | 0.00 | 0.00 | 0.00 | 6 | 1008.5 |
| 20260506111934 | 66 | 90 | 8.0 | 11.0 | 0.00 | 0.00 | 0.00 | 6 | 1008.5 |
| 20260506111516 | 66 | 90 | 8.0 | 11.0 | 0.00 | 0.00 | 0.00 | 6 | 1008.5 |
| 20260506111031 | 66 | 90 | 8.0 | 11.0 | 0.00 | 0.00 | 0.00 | 6 | 1008.5 |
| 20260506110653 | 66 | 90 | 8.0 | 11.0 | 0.00 | 0.00 | 0.00 | 6 | 1008.5 |
| 20260506110615 | 66 | 90 | 8.0 | 11.0 | 0.00 | 0.00 | 0.00 | 6 | 1008.5 |
| 20260506110150 | 66 | 90 | 8.0 | 11.0 | 0.00 | 0.00 | 0.00 | 6 | 1008.5 |
| 20260506105658 | 66 | 90 | 8.0 | 11.0 | 0.00 | 0.00 | 0.00 | 6 | 1008.5 |
| 20260506105655 | 66 | 90 | 8.0 | 11.0 | 0.00 | 0.00 | 0.00 | 6 | 1008.5 |
| 20260506105413 | 66 | 112 | 6.0 | 9.0 | 0.00 | 0.00 | 0.00 | 6 | 1008.2 |
| 20260506105257 | 66 | 112 | 6.0 | 9.0 | 0.00 | 0.00 | 0.00 | 6 | 1008.5 |
| 20260506105012 | 66 | 112 | 6.0 | 8.0 | 0.00 | 0.00 | 0.00 | 6 | 1008.4 |
| 20260506104555 | 67 | 67 | 4.0 | 6.0 | 0.00 | 0.00 | 0.00 | 6 | 1008.4 |
| 20260506104416 | 67 | 90 | 5.0 | 8.0 | 0.00 | 0.00 | 0.00 | 6 | 1008.3 |
| 20260506104103 | 67 | 67 | 6.0 | 8.0 | 0.00 | 0.00 | 0.00 | 6 | 1008.3 |
| 20260506103612 | 67 | 67 | 6.0 | 10.0 | 0.00 | 0.00 | 0.00 | 7 | 1008.3 |
| 20260506103542 | 66 | 112 | 8.0 | 10.0 | 0.00 | 0.00 | 0.00 | 6 | 1008.4 |
| 20260506103125 | 66 | 112 | 6.0 | 8.0 | 0.00 | 0.00 | 0.00 | 6 | 1008.5 |
| 20260506102711 | 67 | 90 | 5.0 | 6.0 | 0.00 | 0.00 | 0.00 | 6 | 1008.3 |
| 20260506102351 | 67 | 90 | 6.0 | 9.0 | 0.00 | 0.00 | 0.00 | 6 | 1008.5 |
| 20260506102310 | 67 | 67 | 4.0 | 6.0 | 0.00 | 0.00 | 0.00 | 7 | 1008.5 |
| 20260506101917 | 67 | 90 | 3.0 | 6.0 | 0.00 | 0.00 | 0.00 | 7 | 1008.5 |
| 20260506101441 | 66 | 90 | 3.0 | 6.0 | 0.00 | 0.00 | 0.00 | 7 | 1008.6 |
| 20260506101009 | 66 | 90 | 3.0 | 4.0 | 0.00 | 0.00 | 0.00 | 7 | 1008.6 |
| 20260506100529 | 66 | 112 | 3.0 | 3.0 | 0.00 | 0.00 | 0.00 | 7 | 1008.5 |
| 20260506100116 | 66 | 90 | 4.0 | 9.0 | 0.00 | 0.00 | 0.00 | 6 | 1008.7 |
| 20260506095712 | 66 | 112 | 5.0 | 8.0 | 0.00 | 0.00 | 0.00 | 6 | 1008.6 |
| 20260506095708 | 66 | 112 | 5.0 | 8.0 | 0.00 | 0.00 | 0.00 | 6 | 1008.6 |
| 20260506095425 | 66 | 67 | 4.0 | 6.0 | 0.00 | 0.00 | 0.00 | 7 | 1008.6 |
| 20260506095006 | 66 | 112 | 6.0 | 8.0 | 0.00 | 0.00 | 0.00 | 6 | 1008.6 |
| 20260506094551 | 67 | 112 | 5.0 | 6.0 | 0.00 | 0.00 | 0.00 | 6 | 1008.5 |
| 20260506094517 | 67 | 112 | 5.0 | 6.0 | 0.00 | 0.00 | 0.00 | 6 | 1008.5 |
| 20260506094047 | 66 | 112 | 4.0 | 8.0 | 0.00 | 0.00 | 0.00 | 7 | 1008.5 |
| 20260506093705 | 65 | 67 | 6.0 | 9.0 | 0.00 | 0.00 | 0.00 | 7 | 1008.4 |
| 20260506093629 | 65 | 112 | 6.0 | 9.0 | 0.00 | 0.00 | 0.00 | 7 | 1008.6 |
| 20260506093204 | 65 | 112 | 6.0 | 9.0 | 0.00 | 0.00 | 0.00 | 6 | 1008.5 |
| 20260506092713 | 65 | 90 | 5.0 | 6.0 | 0.00 | 0.00 | 0.00 | 6 | 1008.5 |
| 20260506092709 | 65 | 90 | 5.0 | 6.0 | 0.00 | 0.00 | 0.00 | 6 | 1008.5 |
| 20260506092352 | 65 | 112 | 6.0 | 9.0 | 0.00 | 0.00 | 0.00 | 7 | 1008.3 |
| 20260506091934 | 65 | 112 | 6.0 | 9.0 | 0.00 | 0.00 | 0.00 | 6 | 1008.4 |
| 20260506091647 | 65 | 67 | 4.0 | 6.0 | 0.00 | 0.00 | 0.00 | 6 | 1008.4 |
| 20260506091514 | 65 | 112 | 3.0 | 8.0 | 0.00 | 0.00 | 0.00 | 6 | 1008.4 |
| 20260506091031 | 64 | 112 | 7.0 | 9.0 | 0.00 | 0.00 | 0.00 | 7 | 1008.3 |
| 20260506090647 | 66 | 90 | 6.0 | 10.0 | 0.00 | 0.00 | 0.00 | 6 | 1008.4 |
| 20260506090614 | 66 | 90 | 6.0 | 10.0 | 0.00 | 0.00 | 0.00 | 6 | 1008.4 |
| 20260506090149 | 66 | 90 | 6.0 | 9.0 | 0.00 | 0.00 | 0.00 | 6 | 1008.3 |
| 20260506085657 | 65 | 90 | 7.0 | 9.0 | 0.00 | 0.00 | 0.00 | 7 | 1008.3 |
| 20260506085654 | 65 | 90 | 7.0 | 9.0 | 0.00 | 0.00 | 0.00 | 7 | 1008.3 |
| 20260506085547 | 65 | 90 | 7.0 | 9.0 | 0.00 | 0.00 | 0.00 | 7 | 1008.3 |
| 20260506085459 | 65 | 112 | 10.0 | 13.0 | 0.00 | 0.00 | 0.00 | 7 | 1008.1 |
| 20260506085014 | 65 | 112 | 6.0 | 9.0 | 0.00 | 0.00 | 0.00 | 7 | 1008.3 |
| 20260506084638 | 65 | 90 | 6.0 | 9.0 | 0.00 | 0.00 | 0.00 | 7 | 1008.2 |
| 20260506084537 | 65 | 157 | 6.0 | 11.0 | 0.00 | 0.00 | 0.00 | 7 | 1008.2 |
| 20260506084052 | 64 | 112 | 6.0 | 8.0 | 0.00 | 0.00 | 0.00 | 7 | 1008.2 |
| 20260506083634 | 65 | 135 | 6.0 | 9.0 | 0.00 | 0.00 | 0.00 | 7 | 1008.3 |
| 20260506083209 | 65 | 112 | 6.0 | 8.0 | 0.00 | 0.00 | 0.00 | 7 | 1008.2 |
| 20260506082715 | 64 | 67 | 3.0 | 4.0 | 0.00 | 0.00 | 0.00 | 7 | 1008.3 |
| 20260506082450 | 64 | 67 | 3.0 | 4.0 | 0.00 | 0.00 | 0.00 | 7 | 1008.2 |
| 20260506082013 | 64 | 90 | 4.0 | 6.0 | 0.00 | 0.00 | 0.00 | 7 | 1008.2 |
| 20260506081525 | 64 | 67 | 7.0 | 10.0 | 0.00 | 0.00 | 0.00 | 7 | 1008.2 |
| 20260506081107 | 65 | 112 | 9.0 | 11.0 | 0.00 | 0.00 | 0.00 | 7 | 1008.2 |
| 20260506080607 | 66 | 90 | 4.0 | 6.0 | 0.00 | 0.00 | 0.00 | 7 | 1008.1 |
| 20260506080535 | 66 | 90 | 4.0 | 6.0 | 0.00 | 0.00 | 0.00 | 7 | 1008.1 |
| 20260506080117 | 65 | 90 | 8.0 | 10.0 | 0.00 | 0.00 | 0.00 | 7 | 1008.1 |
| 20260506073131 | 65 | 112 | 7.0 | 9.0 | 0.00 | 0.00 | 0.00 | 7 | 1008.1 |
| 20260506072723 | 66 | 90 | 3.0 | 4.0 | 0.00 | 0.00 | 0.00 | 7 | 1008.2 |
| 20260506072720 | 66 | 90 | 3.0 | 4.0 | 0.00 | 0.00 | 0.00 | 7 | 1008.2 |
| 20260506072433 | 66 | 90 | 3.0 | 4.0 | 0.00 | 0.00 | 0.00 | 7 | 1008.1 |
| 20260506072001 | 66 | 135 | 2.0 | 4.0 | 0.00 | 0.00 | 0.00 | 7 | 1008.1 |
| 20260506071610 | 65 | 112 | 3.0 | 6.0 | 0.00 | 0.00 | 0.00 | 7 | 1008.1 |
| 20260506071520 | 65 | 112 | 3.0 | 6.0 | 0.00 | 0.00 | 0.00 | 7 | 1008.1 |
| 20260506071118 | 64 | 112 | 4.0 | 6.0 | 0.00 | 0.00 | 0.00 | 7 | 1008.2 |
| 20260506070652 | 64 | 112 | 2.0 | 4.0 | 0.00 | 0.00 | 0.00 | 7 | 1008.2 |
| 20260506070158 | 64 | 67 | 3.0 | 6.0 | 0.00 | 0.00 | 0.00 | 7 | 1008.2 |
| 20260506062441 | 59 | 315 | 0.0 | 1.0 | 0.00 | 0.00 | 0.00 | 9 | 1008.3 |
| 20260506062021 | 59 | 0 | 0.0 | 0.0 | 0.00 | 0.00 | 0.00 | 9 | 1008.2 |
| 20260506061603 | 59 | 0 | 0.0 | 0.0 | 0.00 | 0.00 | 0.00 | 9 | 1008.3 |
| 20260506061119 | 58 | 292 | 0.0 | 1.0 | 0.00 | 0.00 | 0.00 | 9 | 1008.2 |
| 20260506060736 | 57 | 292 | 1.0 | 1.0 | 0.00 | 0.00 | 0.00 | 9 | 1008.2 |
| 20260506060702 | 57 | 292 | 1.0 | 1.0 | 0.00 | 0.00 | 0.00 | 9 | 1008.2 |
| 20260506060237 | 57 | 270 | 1.0 | 2.0 | 0.00 | 0.00 | 0.00 | 9 | 1008.1 |
| 20260506051041 | 56 | 292 | 2.0 | 3.0 | 0.00 | 0.00 | 0.00 | 9 | 1007.8 |
| 20260506050616 | 56 | 292 | 2.0 | 3.0 | 0.00 | 0.00 | 0.00 | 9 | 1007.7 |
| 20260506050124 | 56 | 292 | 1.0 | 2.0 | 0.00 | 0.00 | 0.00 | 9 | 1007.9 |
| 20260506050121 | 56 | 292 | 1.0 | 2.0 | 0.00 | 0.00 | 0.00 | 9 | 1007.9 |
| 20260506044930 | 56 | 270 | 1.0 | 2.0 | 0.00 | 0.00 | 0.00 | 9 | 1007.7 |
| 20260506044501 | 57 | 270 | 2.0 | 3.0 | 0.00 | 0.00 | 0.00 | 9 | 1007.6 |
| 20260506044021 | 57 | 292 | 3.0 | 3.0 | 0.00 | 0.00 | 0.00 | 9 | 1007.8 |
| 20260506043537 | 57 | 292 | 3.0 | 3.0 | 0.00 | 0.00 | 0.00 | 9 | 1007.7 |
| 20260506043050 | 0 | 0 | 0.0 | 0.0 | 0.00 | 0.00 | 0.00 | 100 | |
| 20260506042650 | 0 | 0 | 0.0 | 0.0 | 0.00 | 0.00 | 0.00 | 100 | |
| 20260506042305 | 0 | 0 | 0.0 | 0.0 | 0.00 | 0.00 | 0.00 | 100 | |
| 20260506042218 | 0 | 0 | 0.0 | 0.0 | 0.00 | 0.00 | 0.00 | 100 | |
| 20260506041756 | 0 | 0 | 0.0 | 0.0 | 0.00 | 0.00 | 0.00 | 100 | |
| 20260506041433 | 0 | 0 | 0.0 | 0.0 | 0.00 | 0.00 | 0.00 | 100 | |
| 20260506041341 | 0 | 0 | 0.0 | 0.0 | 0.00 | 0.00 | 0.00 | 100 | |
| 20260506040936 | 57 | 292 | 2.0 | 3.0 | 0.00 | 0.00 | 0.00 | 9 | 1007.6 |
| 20260506040521 | 57 | 292 | 2.0 | 3.0 | 0.00 | 0.00 | 0.00 | 9 | 1007.5 |
| 20260506040111 | 57 | 292 | 2.0 | 3.0 | 0.00 | 0.00 | 0.00 | 9 | 1007.5 |
| 20260506035702 | 57 | 292 | 1.0 | 2.0 | 0.00 | 0.00 | 0.00 | 9 | 1007.6 |
| 20260506035659 | 57 | 292 | 1.0 | 2.0 | 0.00 | 0.00 | 0.00 | 9 | 1007.6 |
| 20260506035455 | 57 | 270 | 2.0 | 2.0 | 0.00 | 0.00 | 0.00 | 9 | 1007.7 |
| 20260506035405 | 57 | 270 | 1.0 | 2.0 | 0.00 | 0.00 | 0.00 | 9 | 1007.7 |
| 20260506035002 | 57 | 270 | 2.0 | 2.0 | 0.00 | 0.00 | 0.00 | 9 | 1007.5 |
| 20260506034536 | 57 | 270 | 2.0 | 3.0 | 0.00 | 0.00 | 0.00 | 9 | 1007.8 |
| 20260506034420 | 57 | 270 | 2.0 | 3.0 | 0.00 | 0.00 | 0.00 | 9 | 1007.7 |
| 20260506034103 | 57 | 270 | 2.0 | 2.0 | 0.00 | 0.00 | 0.00 | 9 | 1007.6 |
| 20260506033614 | 58 | 270 | 1.0 | 2.0 | 0.00 | 0.00 | 0.00 | 9 | 1007.7 |
| 20260506033545 | 58 | 270 | 1.0 | 1.0 | 0.00 | 0.00 | 0.00 | 9 | 1007.7 |
| 20260506033127 | 58 | 270 | 1.0 | 2.0 | 0.00 | 0.00 | 0.00 | 9 | 1007.7 |
| 20260506032713 | 58 | 247 | 1.0 | 2.0 | 0.00 | 0.00 | 0.00 | 9 | 1007.7 |
| 20260506032455 | 58 | 247 | 1.0 | 2.0 | 0.00 | 0.00 | 0.00 | 9 | 1007.7 |
| 20260506032246 | 58 | 247 | 1.0 | 2.0 | 0.00 | 0.00 | 0.00 | 9 | 1007.7 |
| 20260506031752 | 58 | 270 | 2.0 | 3.0 | 0.00 | 0.00 | 0.00 | 9 | 1007.7 |
| 20260506031348 | 58 | 270 | 3.0 | 3.0 | 0.00 | 0.00 | 0.00 | 9 | 1007.5 |
| 20260506030946 | 58 | 270 | 3.0 | 6.0 | 0.00 | 0.00 | 0.00 | 9 | 1007.7 |
| 20260506030540 | 58 | 292 | 3.0 | 3.0 | 0.00 | 0.00 | 0.00 | 9 | 1007.6 |
| 20260506030121 | 58 | 270 | 3.0 | 4.0 | 0.00 | 0.00 | 0.00 | 9 | 1007.6 |
| 20260506025711 | 58 | 292 | 3.0 | 4.0 | 0.00 | 0.00 | 0.00 | 9 | 1007.5 |
| 20260506025447 | 58 | 270 | 2.0 | 3.0 | 0.00 | 0.00 | 0.00 | 9 | 1007.6 |
| 20260506025406 | 58 | 292 | 2.0 | 3.0 | 0.00 | 0.00 | 0.00 | 9 | 1007.7 |
| 20260506025022 | 58 | 315 | 2.0 | 3.0 | 0.00 | 0.00 | 0.00 | 9 | 1007.7 |
| 20260506024537 | 58 | 315 | 3.0 | 4.0 | 0.00 | 0.00 | 0.00 | 9 | 1007.5 |
| 20260506024421 | 58 | 292 | 3.0 | 4.0 | 0.00 | 0.00 | 0.00 | 9 | 1007.6 |
| 20260506024103 | 58 | 292 | 3.0 | 3.0 | 0.00 | 0.00 | 0.00 | 9 | 1007.6 |
| 20260506023615 | 58 | 315 | 3.0 | 4.0 | 0.00 | 0.00 | 0.00 | 9 | 1007.6 |
| 20260506023544 | 58 | 315 | 3.0 | 4.0 | 0.00 | 0.00 | 0.00 | 9 | 1007.7 |
| 20260506023127 | 59 | 292 | 3.0 | 4.0 | 0.00 | 0.00 | 0.00 | 9 | 1007.6 |
| 20260506022721 | 59 | 292 | 2.0 | 3.0 | 0.00 | 0.00 | 0.00 | 8 | 1007.6 |
| 20260506022718 | 59 | 292 | 2.0 | 3.0 | 0.00 | 0.00 | 0.00 | 8 | 1007.6 |
| 20260506022436 | 59 | 270 | 3.0 | 3.0 | 0.00 | 0.00 | 0.00 | 8 | 1007.6 |
| 20260506021954 | 59 | 292 | 3.0 | 4.0 | 0.00 | 0.00 | 0.00 | 8 | 1007.6 |
| 20260506021501 | 59 | 292 | 3.0 | 3.0 | 0.00 | 0.00 | 0.00 | 8 | 1007.6 |
| 20260506021035 | 59 | 315 | 3.0 | 3.0 | 0.00 | 0.00 | 0.00 | 8 | 1007.4 |
| 20260506020650 | 60 | 315 | 3.0 | 4.0 | 0.00 | 0.00 | 0.00 | 8 | 1007.7 |
| 20260506020616 | 60 | 315 | 3.0 | 4.0 | 0.00 | 0.00 | 0.00 | 8 | 1007.7 |
| 20260506020151 | 60 | 292 | 3.0 | 3.0 | 0.00 | 0.00 | 0.00 | 8 | 1007.6 |
| 20260506015659 | 60 | 292 | 2.0 | 2.0 | 0.00 | 0.00 | 0.00 | 8 | 1007.5 |
| 20260506015656 | 60 | 292 | 2.0 | 2.0 | 0.00 | 0.00 | 0.00 | 8 | 1007.5 |
| 20260506015525 | 60 | 292 | 2.0 | 2.0 | 0.00 | 0.00 | 0.00 | 8 | 1007.5 |
| 20260506015406 | 60 | 292 | 3.0 | 4.0 | 0.00 | 0.00 | 0.00 | 8 | 1007.5 |
| 20260506014942 | 60 | 315 | 3.0 | 6.0 | 0.00 | 0.00 | 0.00 | 8 | 1007.6 |
| 20260506014625 | 60 | 292 | 3.0 | 4.0 | 0.00 | 0.00 | 0.00 | 9 | 1007.7 |
| 20260506014500 | 60 | 292 | 2.0 | 3.0 | 0.00 | 0.00 | 0.00 | 9 | 1007.6 |
| 20260506014034 | 60 | 270 | 3.0 | 3.0 | 0.00 | 0.00 | 0.00 | 9 | 1007.7 |
| 20260506013709 | 60 | 292 | 2.0 | 3.0 | 0.00 | 0.00 | 0.00 | 8 | 1007.6 |
| 20260506013622 | 60 | 270 | 2.0 | 3.0 | 0.00 | 0.00 | 0.00 | 8 | 1007.6 |
| 20260506013214 | 60 | 270 | 2.0 | 2.0 | 0.00 | 0.00 | 0.00 | 8 | 1007.6 |
| 20260506012725 | 60 | 270 | 2.0 | 2.0 | 0.00 | 0.00 | 0.00 | 8 | 1007.5 |
| 20260506012722 | 60 | 270 | 2.0 | 2.0 | 0.00 | 0.00 | 0.00 | 8 | 1007.5 |
| 20260506012440 | 60 | 292 | 2.0 | 3.0 | 0.00 | 0.00 | 0.00 | 8 | 1007.5 |
| 20260506012015 | 61 | 292 | 2.0 | 3.0 | 0.00 | 0.00 | 0.00 | 8 | 1007.6 |
| 20260506011534 | 61 | 292 | 2.0 | 2.0 | 0.00 | 0.00 | 0.00 | 8 | 1007.8 |
| 20260506011403 | 61 | 292 | 1.0 | 2.0 | 0.00 | 0.00 | 0.00 | 8 | 1007.5 |
| 20260506011057 | 61 | 292 | 1.0 | 2.0 | 0.00 | 0.00 | 0.00 | 8 | 1007.7 |
| 20260506010608 | 61 | 292 | 1.0 | 2.0 | 0.00 | 0.00 | 0.00 | 8 | 1007.6 |
| 20260506010537 | 61 | 292 | 1.0 | 2.0 | 0.00 | 0.00 | 0.00 | 8 | 1007.6 |
| 20260506010120 | 61 | 292 | 2.0 | 2.0 | 0.00 | 0.00 | 0.00 | 8 | 1007.5 |
| 20260506005714 | 61 | 270 | 2.0 | 2.0 | 0.00 | 0.00 | 0.00 | 8 | 1007.8 |
| 20260506005711 | 61 | 270 | 2.0 | 2.0 | 0.00 | 0.00 | 0.00 | 8 | 1007.8 |
| 20260506005355 | 61 | 292 | 3.0 | 3.0 | 0.00 | 0.00 | 0.00 | 8 | 1007.7 |
| 20260506004917 | 61 | 270 | 3.0 | 3.0 | 0.00 | 0.00 | 0.00 | 8 | 1007.7 |
| 20260506004512 | 62 | 270 | 3.0 | 3.0 | 0.00 | 0.00 | 0.00 | 8 | 1007.7 |
| 20260506004022 | 62 | 270 | 2.0 | 3.0 | 0.00 | 0.00 | 0.00 | 8 | 1007.9 |
| 20260506003603 | 62 | 292 | 2.0 | 3.0 | 0.00 | 0.00 | 0.00 | 8 | 1007.8 |
| 20260506003132 | 63 | 270 | 1.0 | 2.0 | 0.00 | 0.00 | 0.00 | 8 | 1007.9 |
| 20260506002722 | 63 | 0 | 0.0 | 0.0 | 0.00 | 0.00 | 0.00 | 8 | 1007.8 |
| 20260506002308 | 62 | 0 | 0.0 | 0.0 | 0.00 | 0.00 | 0.00 | 8 | 1007.8 |
| 20260506002224 | 62 | 0 | 0.0 | 0.0 | 0.00 | 0.00 | 0.00 | 8 | 1007.8 |
| 20260506001854 | 63 | 0 | 0.0 | 0.0 | 0.00 | 0.00 | 0.00 | 8 | 1008.0 |
| 20260506001401 | 63 | 90 | 1.0 | 4.0 | 0.00 | 0.00 | 0.00 | 8 | 1007.9 |
| 20260506000954 | 63 | 0 | 0.0 | 0.0 | 0.00 | 0.00 | 0.00 | 8 | 1007.8 |
| 20260506000528 | 63 | 0 | 0.0 | 1.0 | 0.00 | 0.00 | 0.00 | 8 | 1007.9 |
| 20260506000114 | 63 | 270 | 0.0 | 6.0 | 0.00 | 0.00 | 0.00 | 8 | 1008.0 |
| 20260505235704 | 63 | 270 | 0.0 | 2.0 | 0.00 | 0.00 | 0.00 | 8 | 1007.9 |
| 20260505235559 | 63 | 270 | 0.0 | 2.0 | 0.00 | 0.00 | 0.00 | 8 | 1007.9 |
| 20260505235100 | 63 | 0 | 0.0 | 0.0 | 0.00 | 0.00 | 0.00 | 8 | 1008.1 |
| 20260505234614 | 63 | 135 | 3.0 | 6.0 | 0.00 | 0.00 | 0.00 | 8 | 1008.1 |
| 20260505234129 | 63 | 112 | 2.0 | 2.0 | 0.00 | 0.00 | 0.00 | 8 | 1008.0 |
| 20260505233639 | 62 | 112 | 2.0 | 3.0 | 0.00 | 0.00 | 0.00 | 8 | 1008.0 |
| 20260505233209 | 62 | 270 | 2.0 | 3.0 | 0.00 | 0.00 | 0.00 | 8 | 1008.0 |
| 20260505232722 | 62 | 0 | 0.0 | 0.0 | 0.00 | 0.00 | 0.00 | 8 | 1008.0 |
| 20260505232719 | 62 | 0 | 0.0 | 0.0 | 0.00 | 0.00 | 0.00 | 8 | 1008.0 |
| 20260505232434 | 63 | 0 | 0.0 | 0.0 | 0.00 | 0.00 | 0.00 | 8 | 1007.8 |
| 20260505231943 | 63 | 0 | 0.0 | 0.0 | 0.00 | 0.00 | 0.00 | 8 | 1007.7 |
| 20260505231553 | 63 | 0 | 0.0 | 0.0 | 0.00 | 0.00 | 0.00 | 8 | 1008.0 |
| 20260505231500 | 63 | 180 | 0.0 | 1.0 | 0.00 | 0.00 | 0.00 | 8 | 1008.0 |
| 20260505231058 | 63 | 247 | 0.0 | 1.0 | 0.00 | 0.00 | 0.00 | 8 | 1008.0 |
| 20260505230633 | 63 | 67 | 4.0 | 8.0 | 0.00 | 0.00 | 0.00 | 8 | 1007.8 |
| 20260505230140 | 63 | 90 | 2.0 | 3.0 | 0.00 | 0.00 | 0.00 | 8 | 1007.9 |
| 20260505225644 | 63 | 90 | 1.0 | 3.0 | 0.00 | 0.00 | 0.00 | 8 | 1007.9 |
| 20260505225456 | 64 | 67 | 3.0 | 4.0 | 0.00 | 0.00 | 0.00 | 8 | 1007.9 |
| 20260505225011 | 63 | 337 | 1.0 | 6.0 | 0.00 | 0.00 | 0.00 | 8 | 1007.9 |
| 20260505224521 | 63 | 112 | 3.0 | 6.0 | 0.00 | 0.00 | 0.00 | 8 | 1007.8 |
| 20260505224458 | 63 | 90 | 1.0 | 6.0 | 0.00 | 0.00 | 0.00 | 8 | 1007.8 |
| 20260505224051 | 63 | 292 | 5.0 | 6.0 | 0.00 | 0.00 | 0.00 | 8 | 1007.8 |
| 20260505223558 | 63 | 292 | 1.0 | 2.0 | 0.00 | 0.00 | 0.00 | 8 | 1007.8 |
| 20260505223539 | 63 | 22 | 3.0 | 6.0 | 0.00 | 0.00 | 0.00 | 8 | 1007.9 |
| 20260505223131 | 64 | 90 | 2.0 | 6.0 | 0.00 | 0.00 | 0.00 | 8 | 1007.8 |
| 20260505222724 | 64 | 67 | 0.0 | 2.0 | 0.00 | 0.00 | 0.00 | 8 | 1007.7 |
| 20260505222721 | 64 | 67 | 0.0 | 2.0 | 0.00 | 0.00 | 0.00 | 8 | 1007.7 |
| 20260505222602 | 64 | 67 | 0.0 | 2.0 | 0.00 | 0.00 | 0.00 | 8 | 1007.9 |
| 20260505222348 | 63 | 112 | 3.0 | 6.0 | 0.00 | 0.00 | 0.00 | 8 | 1007.8 |
| 20260505221932 | 64 | 67 | 1.0 | 3.0 | 0.00 | 0.00 | 0.00 | 8 | 1007.7 |
| 20260505221608 | 64 | 337 | 0.0 | 3.0 | 0.00 | 0.00 | 0.00 | 8 | 1007.8 |
| 20260505221521 | 64 | 337 | 0.0 | 3.0 | 0.00 | 0.00 | 0.00 | 8 | 1007.8 |
| 20260505221035 | 64 | 292 | 6.0 | 8.0 | 0.00 | 0.00 | 0.00 | 8 | 1007.6 |
| 20260505220618 | 64 | 45 | 3.0 | 4.0 | 0.00 | 0.00 | 0.00 | 8 | 1007.5 |
| 20260505220153 | 64 | 45 | 3.0 | 6.0 | 0.00 | 0.00 | 0.00 | 8 | 1007.5 |
| 20260505215704 | 64 | 90 | 7.0 | 10.0 | 0.00 | 0.00 | 0.00 | 8 | 1007.6 |
| 20260505215702 | 64 | 90 | 7.0 | 10.0 | 0.00 | 0.00 | 0.00 | 8 | 1007.6 |
| 20260505215404 | 64 | 90 | 7.0 | 11.0 | 0.00 | 0.00 | 0.00 | 8 | 1007.6 |
| 20260505215306 | 64 | 67 | 5.0 | 6.0 | 0.00 | 0.00 | 0.00 | 8 | 1007.6 |
| 20260505214914 | 64 | 90 | 4.0 | 6.0 | 0.00 | 0.00 | 0.00 | 8 | 1007.5 |
| 20260505214503 | 65 | 67 | 5.0 | 8.0 | 0.00 | 0.00 | 0.00 | 8 | 1007.4 |
| 20260505214411 | 65 | 67 | 5.0 | 8.0 | 0.00 | 0.00 | 0.00 | 8 | 1007.4 |
| 20260505214030 | 65 | 67 | 5.0 | 10.0 | 0.00 | 0.00 | 0.00 | 8 | 1007.3 |
| 20260505213543 | 66 | 67 | 4.0 | 9.0 | 0.00 | 0.00 | 0.00 | 8 | 1007.2 |
| 20260505213129 | 66 | 22 | 5.0 | 8.0 | 0.00 | 0.00 | 0.00 | 8 | 1007.1 |
| 20260505212719 | 66 | 315 | 5.0 | 9.0 | 0.00 | 0.00 | 0.00 | 7 | 1007.0 |
| 20260505212717 | 66 | 315 | 5.0 | 9.0 | 0.00 | 0.00 | 0.00 | 7 | 1007.0 |
| 20260505212420 | 66 | 337 | 4.0 | 8.0 | 0.00 | 0.00 | 0.00 | 7 | 1006.9 |
| 20260505212348 | 66 | 337 | 4.0 | 8.0 | 0.00 | 0.00 | 0.00 | 7 | 1006.9 |
| 20260505211933 | 64 | 337 | 4.0 | 6.0 | 0.00 | 0.00 | 0.00 | 7 | 1006.9 |
| 20260505211521 | 64 | 292 | 5.0 | 6.0 | 0.00 | 0.00 | 0.00 | 6 | 1006.8 |
| 20260505211035 | 65 | 315 | 5.0 | 6.0 | 0.00 | 0.00 | 0.00 | 6 | 1006.8 |
| 20260505210655 | 65 | 292 | 5.0 | 6.0 | 0.00 | 0.00 | 0.00 | 6 | 1006.5 |
| 20260505210618 | 65 | 292 | 5.0 | 6.0 | 0.00 | 0.00 | 0.00 | 6 | 1006.5 |
| 20260505210154 | 66 | 315 | 3.0 | 4.0 | 0.00 | 0.00 | 0.00 | 6 | 1006.6 |
| 20260505205702 | 67 | 292 | 3.0 | 4.0 | 0.00 | 0.00 | 0.00 | 6 | 1006.4 |
| 20260505205658 | 67 | 292 | 3.0 | 4.0 | 0.00 | 0.00 | 0.00 | 6 | 1006.4 |
| 20260505205448 | 68 | 292 | 4.0 | 6.0 | 0.00 | 0.00 | 0.00 | 5 | 1006.3 |
| 20260505205415 | 67 | 292 | 5.0 | 6.0 | 0.00 | 0.00 | 0.00 | 5 | 1006.6 |
| 20260505205013 | 66 | 292 | 3.0 | 4.0 | 0.00 | 0.00 | 0.00 | 6 | 1006.3 |
| 20260505204536 | 67 | 292 | 2.0 | 3.0 | 0.00 | 0.00 | 0.00 | 6 | 1006.4 |
| 20260505204049 | 66 | 292 | 2.0 | 3.0 | 0.00 | 0.00 | 0.00 | 6 | 1006.3 |
| 20260505203710 | 66 | 0 | 0.0 | 0.0 | 0.00 | 0.00 | 0.00 | 7 | 1006.2 |
| 20260505203633 | 66 | 0 | 0.0 | 0.0 | 0.00 | 0.00 | 0.00 | 7 | 1006.2 |
| 20260505203208 | 66 | 0 | 0.0 | 1.0 | 0.00 | 0.00 | 0.00 | 6 | 1006.2 |
| 20260505202716 | 67 | 0 | 0.0 | 0.0 | 0.00 | 0.00 | 0.00 | 6 | 1006.1 |
| 20260505202713 | 67 | 0 | 0.0 | 0.0 | 0.00 | 0.00 | 0.00 | 6 | 1006.1 |
| 20260505202346 | 67 | 0 | 0.0 | 0.0 | 0.00 | 0.00 | 0.00 | 6 | 1006.1 |
| 20260505201912 | 66 | 0 | 0.0 | 0.0 | 0.00 | 0.00 | 0.00 | 6 | 1006.0 |
| 20260505201653 | 66 | 0 | 0.0 | 0.0 | 0.00 | 0.00 | 0.00 | 7 | 1006.2 |
| 20260505201442 | 66 | 180 | 0.0 | 1.0 | 0.00 | 0.00 | 0.00 | 7 | 1006.0 |
| 20260505201039 | 67 | 0 | 0.0 | 0.0 | 0.00 | 0.00 | 0.00 | 7 | 1005.9 |
| 20260505200653 | 68 | 0 | 0.0 | 0.0 | 0.00 | 0.00 | 0.00 | 7 | 1005.9 |
| 20260505200619 | 68 | 0 | 0.0 | 0.0 | 0.00 | 0.00 | 0.00 | 7 | 1005.9 |
| 20260505200154 | 68 | 0 | 0.0 | 0.0 | 0.00 | 0.00 | 0.00 | 7 | 1005.8 |
| 20260505195703 | 67 | 0 | 0.0 | 0.0 | 0.00 | 0.00 | 0.00 | 7 | 1005.7 |
| 20260505195659 | 67 | 0 | 0.0 | 0.0 | 0.00 | 0.00 | 0.00 | 7 | 1005.7 |
| 20260505195410 | 67 | 0 | 0.0 | 1.0 | 0.00 | 0.00 | 0.00 | 7 | 1005.7 |
| 20260505195006 | 67 | 0 | 0.0 | 1.0 | 0.00 | 0.00 | 0.00 | 7 | 1005.6 |
| 20260505194602 | 67 | 0 | 0.0 | 0.0 | 0.00 | 0.00 | 0.00 | 7 | 1005.7 |
| 20260505194123 | 68 | 0 | 0.0 | 0.0 | 0.00 | 0.00 | 0.00 | 7 | 1005.5 |
| 20260505193636 | 67 | 0 | 0.0 | 1.0 | 0.00 | 0.00 | 0.00 | 7 | 1005.5 |
| 20260505193207 | 68 | 0 | 0.0 | 1.0 | 0.00 | 0.00 | 0.00 | 7 | 1005.3 |
| 20260505192717 | 68 | 292 | 3.0 | 3.0 | 0.00 | 0.00 | 0.00 | 7 | 1005.4 |
| 20260505192400 | 69 | 0 | 0.0 | 0.0 | 0.00 | 0.00 | 0.00 | 7 | 1005.3 |
| 20260505191940 | 69 | 0 | 0.0 | 0.0 | 0.00 | 0.00 | 0.00 | 7 | 1005.1 |
| 20260505191520 | 69 | 292 | 1.0 | 2.0 | 0.00 | 0.00 | 0.00 | 7 | 1005.1 |
| 20260505191037 | 69 | 0 | 0.0 | 0.0 | 0.00 | 0.00 | 0.00 | 6 | 1005.1 |
| 20260505190620 | 70 | 0 | 0.0 | 0.0 | 0.00 | 0.00 | 0.00 | 7 | 1004.9 |
| 20260505190155 | 69 | 0 | 0.0 | 0.0 | 0.00 | 0.00 | 0.00 | 7 | 1005.0 |
| 20260505185700 | 70 | 315 | 3.0 | 4.0 | 0.00 | 0.00 | 0.00 | 7 | 1004.9 |
| 20260505185519 | 70 | 315 | 3.0 | 4.0 | 0.00 | 0.00 | 0.00 | 7 | 1004.9 |
| 20260505185411 | 70 | 90 | 0.0 | 2.0 | 0.00 | 0.00 | 0.00 | 6 | 1004.9 |
| 20260505185006 | 71 | 0 | 0.0 | 1.0 | 0.00 | 0.00 | 0.00 | 6 | 1004.6 |
| 20260505184619 | 71 | 270 | 1.0 | 2.0 | 0.00 | 0.00 | 0.00 | 6 | 1004.7 |
| 20260505184602 | 71 | 270 | 2.0 | 3.0 | 0.00 | 0.00 | 0.00 | 6 | 1004.8 |
| 20260505184123 | 72 | 0 | 0.0 | 1.0 | 0.00 | 0.00 | 0.00 | 6 | 1004.7 |
| 20260505183636 | 71 | 112 | 2.0 | 3.0 | 0.00 | 0.00 | 0.00 | 6 | 1004.6 |
| 20260505183207 | 71 | 0 | 0.0 | 0.0 | 0.00 | 0.00 | 0.00 | 6 | 1004.6 |
| 20260505182720 | 72 | 112 | 2.0 | 3.0 | 0.00 | 0.00 | 0.00 | 6 | 1004.5 |
| 20260505182716 | 72 | 112 | 2.0 | 3.0 | 0.00 | 0.00 | 0.00 | 6 | 1004.5 |
| 20260505182347 | 72 | 112 | 2.0 | 3.0 | 0.00 | 0.00 | 0.00 | 6 | 1004.5 |
| 20260505181933 | 72 | 90 | 2.0 | 3.0 | 0.00 | 0.00 | 0.00 | 6 | 1004.6 |
| 20260505181521 | 73 | 0 | 0.0 | 1.0 | 0.00 | 0.00 | 0.00 | 6 | 1004.7 |
| 20260505181036 | 73 | 90 | 3.0 | 4.0 | 0.00 | 0.00 | 0.00 | 5 | 1004.5 |
| 20260505180619 | 74 | 90 | 3.0 | 3.0 | 0.00 | 0.00 | 0.00 | 5 | 1004.4 |
| 20260505180154 | 74 | 135 | 0.0 | 2.0 | 0.00 | 0.00 | 0.00 | 5 | 1004.4 |
| 20260505175659 | 73 | 112 | 3.0 | 4.0 | 0.00 | 0.00 | 0.00 | 6 | 1004.4 |
| 20260505175500 | 73 | 90 | 2.0 | 3.0 | 0.00 | 0.00 | 0.00 | 6 | 1004.5 |
| 20260505175005 | 73 | 45 | 2.0 | 3.0 | 0.00 | 0.00 | 0.00 | 6 | 1004.4 |
| 20260505174539 | 73 | 67 | 2.0 | 3.0 | 0.00 | 0.00 | 0.00 | 6 | 1004.6 |
| 20260505174107 | 73 | 112 | 5.0 | 6.0 | 0.00 | 0.00 | 0.00 | 5 | 1004.3 |
| 20260505173619 | 73 | 112 | 4.0 | 6.0 | 0.00 | 0.00 | 0.00 | 5 | 1004.5 |
| 20260505173130 | 73 | 112 | 5.0 | 8.0 | 0.00 | 0.00 | 0.00 | 5 | 1004.4 |
| 20260505172720 | 73 | 90 | 3.0 | 6.0 | 0.00 | 0.00 | 0.00 | 6 | 1004.3 |
| 20260505172552 | 73 | 90 | 3.0 | 6.0 | 0.00 | 0.00 | 0.00 | 6 | 1004.3 |
| 20260505172341 | 73 | 112 | 3.0 | 4.0 | 0.00 | 0.00 | 0.00 | 6 | 1004.2 |
| 20260505172057 | 73 | 112 | 3.0 | 6.0 | 0.00 | 0.00 | 0.00 | 5 | 1004.5 |
| 20260505171610 | 73 | 112 | 6.0 | 8.0 | 0.00 | 0.00 | 0.00 | 5 | 1004.4 |
| 20260505171117 | 73 | 112 | 6.0 | 9.0 | 0.00 | 0.00 | 0.00 | 5 | 1004.4 |
| 20260505170652 | 73 | 67 | 5.0 | 9.0 | 0.00 | 0.00 | 0.00 | 5 | 1004.5 |
| 20260505170157 | 73 | 90 | 6.0 | 8.0 | 0.00 | 0.00 | 0.00 | 5 | 1004.5 |
| 20260505165703 | 73 | 112 | 6.0 | 9.0 | 0.00 | 0.00 | 0.00 | 5 | 1004.4 |
| 20260505165408 | 73 | 90 | 4.0 | 6.0 | 0.00 | 0.00 | 0.00 | 5 | 1004.4 |
| 20260505165324 | 73 | 90 | 4.0 | 6.0 | 0.00 | 0.00 | 0.00 | 5 | 1004.4 |
| 20260505165006 | 73 | 90 | 4.0 | 6.0 | 0.00 | 0.00 | 0.00 | 5 | 1004.4 |
| 20260505164541 | 74 | 90 | 2.0 | 3.0 | 0.00 | 0.00 | 0.00 | 6 | 1004.5 |
| 20260505164123 | 74 | 90 | 4.0 | 6.0 | 0.00 | 0.00 | 0.00 | 6 | 1004.5 |
| 20260505163610 | 73 | 90 | 4.0 | 6.0 | 0.00 | 0.00 | 0.00 | 6 | 1004.3 |
| 20260505163141 | 73 | 112 | 6.0 | 8.0 | 0.00 | 0.00 | 0.00 | 6 | 1004.4 |
| 20260505162719 | 73 | 67 | 4.0 | 9.0 | 0.00 | 0.00 | 0.00 | 6 | 1004.5 |
| 20260505162716 | 73 | 67 | 4.0 | 9.0 | 0.00 | 0.00 | 0.00 | 6 | 1004.5 |
| 20260505162438 | 73 | 90 | 5.0 | 8.0 | 0.00 | 0.00 | 0.00 | 6 | 1004.5 |
| 20260505162013 | 72 | 90 | 5.0 | 6.0 | 0.00 | 0.00 | 0.00 | 6 | 1004.6 |
| 20260505161532 | 72 | 112 | 4.0 | 6.0 | 0.00 | 0.00 | 0.00 | 6 | 1004.6 |
| 20260505161055 | 72 | 90 | 4.0 | 6.0 | 0.00 | 0.00 | 0.00 | 6 | 1004.6 |
| 20260505160605 | 72 | 67 | 4.0 | 6.0 | 0.00 | 0.00 | 0.00 | 6 | 1004.6 |
| 20260505160118 | 72 | 90 | 5.0 | 6.0 | 0.00 | 0.00 | 0.00 | 6 | 1004.7 |
| 20260505153132 | 73 | 112 | 6.0 | 10.0 | 0.00 | 0.00 | 0.00 | 6 | 1004.6 |
| 20260505152723 | 73 | 112 | 5.0 | 6.0 | 0.00 | 0.00 | 0.00 | 6 | 1004.5 |
| 20260505152403 | 73 | 67 | 6.0 | 9.0 | 0.00 | 0.00 | 0.00 | 6 | 1004.6 |
| 20260505152248 | 73 | 90 | 8.0 | 11.0 | 0.00 | 0.00 | 0.00 | 6 | 1004.6 |
| 20260505152000 | 73 | 90 | 9.0 | 13.0 | 0.00 | 0.00 | 0.00 | 6 | 1004.4 |
| 20260505151541 | 73 | 90 | 6.0 | 11.0 | 0.00 | 0.00 | 0.00 | 6 | 1004.6 |
| 20260505151353 | 72 | 90 | 5.0 | 9.0 | 0.00 | 0.00 | 0.00 | 7 | 1004.8 |
| 20260505151049 | 72 | 90 | 8.0 | 12.0 | 0.00 | 0.00 | 0.00 | 6 | 1004.7 |
| 20260505150558 | 74 | 67 | 7.0 | 10.0 | 0.00 | 0.00 | 0.00 | 6 | 1004.8 |
| 20260505150526 | 74 | 67 | 7.0 | 10.0 | 0.00 | 0.00 | 0.00 | 6 | 1004.8 |
| 20260505150110 | 74 | 112 | 5.0 | 6.0 | 0.00 | 0.00 | 0.00 | 6 | 1004.7 |
| 20260505140532 | 74 | 90 | 6.0 | 9.0 | 0.00 | 0.00 | 0.00 | 5 | 1005.3 |
| 20260505140113 | 75 | 90 | 4.0 | 6.0 | 0.00 | 0.00 | 0.00 | 5 | 1005.3 |
| 20260505130211 | 71 | 67 | 12.0 | 17.0 | 0.00 | 0.00 | 0.00 | 6 | 1005.9 |
| 20260505124933 | 72 | 112 | 8.0 | 13.0 | 0.00 | 0.00 | 0.00 | 6 | 1006.0 |
| 20260505124451 | 71 | 67 | 12.0 | 18.0 | 0.00 | 0.00 | 0.00 | 6 | 1005.9 |
| 20260505124418 | 71 | 67 | 12.0 | 18.0 | 0.00 | 0.00 | 0.00 | 6 | 1005.9 |
| 20260505124037 | 74 | 67 | 9.0 | 15.0 | 0.00 | 0.00 | 0.00 | 6 | 1005.8 |
| 20260505123623 | 74 | 112 | 8.0 | 15.0 | 0.00 | 0.00 | 0.00 | 6 | 1006.0 |
| 20260505123128 | 73 | 292 | 2.0 | 4.0 | 0.00 | 0.00 | 0.00 | 5 | 1006.0 |
| 20260505122714 | 75 | 337 | 3.0 | 3.0 | 0.00 | 0.00 | 0.00 | 3 | 1005.8 |
| 20260505122420 | 75 | 0 | 1.0 | 2.0 | 0.00 | 0.00 | 0.00 | 3 | 1005.8 |